,,Stat5,,Stat1,,Stat2,,Stat3,,Stat4,,Wind1,,Wind1,
time,status,PA1M_AVG,status,PR1M_SUM,status,RH1M_AVG,status,SR1M_AVG,status,TA1M_AVG,status,W1dAve1m,status,W1sAve1m,
2003-08-22, 00:00:00,VALID,918.973,VALID,0,VALID,99.0656,VALID,-0.0169808,VALID,19.7661,VALID,144,VALID,1.55325,
2003-08-22, 00:01:01,VALID,918.949,VALID,0,VALID,99.0249,VALID,0.0169808,VALID,19.7658,VALID,139,VALID,1.39732,
2003-08-22, 00:02:00,VALID,918.932,VALID,0,VALID,98.9906,VALID,0.0169808,VALID,19.7688,VALID,136,VALID,1.31209,
2003-08-22, 00:03:00,VALID,918.915,VALID,0,VALID,98.9168,VALID,0.0169808,VALID,19.7723,VALID,134,VALID,1.09446,
2003-08-22, 00:04:00,VALID,918.896,VALID,0,VALID,98.8037,VALID,0,VALID,19.7854,VALID,133,VALID,1.20603,
2003-08-22, 00:05:00,VALID,918.868,VALID,0,VALID,98.6638,VALID,0.0169808,VALID,19.7924,VALID,130,VALID,1.36064,
2003-08-22, 00:06:00,VALID,918.853,VALID,0,VALID,98.4832,VALID,0.0169808,VALID,19.7785,VALID,124,VALID,1.35684,
2003-08-22, 00:07:01,VALID,918.824,VALID,0,VALID,98.276,VALID,0,VALID,19.7949,VALID,146,VALID,1.15851,
2003-08-22, 00:08:00,VALID,918.81,VALID,0,VALID,98.0293,VALID,0,VALID,19.814,VALID,138,VALID,1.09766,
2003-08-22, 00:09:01,VALID,918.789,VALID,0,VALID,97.7368,VALID,0,VALID,19.8471,VALID,132,VALID,1.21197,
2003-08-22, 00:10:01,VALID,918.758,VALID,0,VALID,97.4164,VALID,-0.0169808,VALID,19.8602,VALID,123,VALID,1.21664,
2003-08-22, 00:11:01,VALID,918.756,VALID,0,VALID,97.1341,VALID,-0.101885,VALID,19.8828,VALID,111,VALID,1.11673,
2003-08-22, 00:12:00,VALID,918.749,VALID,0,VALID,97.101,VALID,-0.0679233,VALID,19.9291,VALID,127,VALID,1.38425,
2003-08-22, 00:13:00,VALID,918.735,VALID,0,VALID,97.1684,VALID,-0.0849042,VALID,19.98,VALID,147,VALID,1.67124,
2003-08-22, 00:14:01,VALID,918.715,VALID,0,VALID,96.9522,VALID,-0.101885,VALID,20.0416,VALID,144,VALID,1.64248,
2003-08-22, 00:15:00,VALID,918.712,VALID,0,VALID,96.7004,VALID,-0.0509425,VALID,20.0739,VALID,147,VALID,1.53378,
2003-08-22, 00:16:00,VALID,918.695,VALID,0,VALID,96.511,VALID,-0.0679233,VALID,20.0901,VALID,125,VALID,1.10335,
2003-08-22, 00:17:01,VALID,918.684,VALID,0,VALID,96.3787,VALID,-0.0849042,VALID,20.1002,VALID,127,VALID,0.673077,
2003-08-22, 00:18:01,VALID,918.671,VALID,0,VALID,96.3724,VALID,-0.101885,VALID,20.0968,VALID,137,VALID,1.5116,
2003-08-22, 00:19:00,VALID,918.646,VALID,0,VALID,96.2452,VALID,-0.0509425,VALID,20.1156,VALID,115,VALID,0.971429,
2003-08-22, 00:20:01,VALID,918.649,VALID,0,VALID,96.0723,VALID,-0.0849042,VALID,20.1266,VALID,120,VALID,1.22677,
2003-08-22, 00:21:00,VALID,918.632,VALID,0,VALID,95.9171,VALID,-0.0849042,VALID,20.1124,VALID,140,VALID,0.561655,
2003-08-22, 00:22:01,VALID,918.614,VALID,0,VALID,95.907,VALID,-0.0849042,VALID,20.1229,VALID,131,VALID,1.10752,
2003-08-22, 00:23:01,VALID,918.61,VALID,0,VALID,95.8879,VALID,-0.0679233,VALID,20.1092,VALID,133,VALID,0.658637,
2003-08-22, 00:24:01,VALID,918.602,VALID,0,VALID,95.865,VALID,-0.101885,VALID,20.1191,VALID,119,VALID,0.613898,
2003-08-22, 00:25:01,VALID,918.583,VALID,0,VALID,95.7912,VALID,-0.101885,VALID,20.1293,VALID,109,VALID,0.679265,
2003-08-22, 00:26:01,VALID,918.571,VALID,0,VALID,95.734,VALID,-0.101885,VALID,20.1288,VALID,133,VALID,0.488511,
2003-08-22, 00:27:01,VALID,918.54,VALID,0,VALID,95.7429,VALID,-0.101885,VALID,20.1226,VALID,154,VALID,0.422286,
2003-08-22, 00:28:01,VALID,918.535,VALID,0,VALID,95.7366,VALID,-0.101885,VALID,20.0995,VALID,180,VALID,0.900127,
2003-08-22, 00:29:01,VALID,918.514,VALID,0,VALID,95.8014,VALID,-0.0849042,VALID,20.0997,VALID,169,VALID,0.981908,
2003-08-22, 00:30:01,VALID,918.503,VALID,0,VALID,95.8307,VALID,-0.0679233,VALID,20.1002,VALID,176,VALID,0.610853,
2003-08-22, 00:31:01,VALID,918.498,VALID,0,VALID,95.9782,VALID,-0.0679233,VALID,20.0769,VALID,158,VALID,0.595759,
2003-08-22, 00:32:01,VALID,918.487,VALID,0,VALID,96.1829,VALID,-0.0849042,VALID,20.0736,VALID,158,VALID,0.68149,
2003-08-22, 00:33:01,VALID,918.469,VALID,0,VALID,96.2109,VALID,-0.0849042,VALID,20.0669,VALID,181,VALID,0.500237,
2003-08-22, 00:34:01,VALID,918.477,VALID,0,VALID,96.188,VALID,-0.0339617,VALID,20.054,VALID,154,VALID,0.725223,
2003-08-22, 00:35:01,VALID,918.472,VALID,0,VALID,96.2427,VALID,-0.0509425,VALID,20.051,VALID,165,VALID,0.708615,
2003-08-22, 00:36:01,VALID,918.462,VALID,0,VALID,96.3253,VALID,-0.101885,VALID,20.0351,VALID,147,VALID,0.800465,
2003-08-22, 00:37:01,VALID,918.454,VALID,0,VALID,96.3202,VALID,-0.0339617,VALID,20.0354,VALID,134,VALID,0.827508,
2003-08-22, 00:38:01,VALID,918.435,VALID,0,VALID,96.2694,VALID,-0.0849042,VALID,20.0225,VALID,93,VALID,0.550781,
2003-08-22, 00:39:01,VALID,918.416,VALID,0,VALID,96.3609,VALID,-0.0849042,VALID,19.9837,VALID,118,VALID,0.578125,
2003-08-22, 00:40:01,VALID,918.393,VALID,0,VALID,96.4601,VALID,-0.0849042,VALID,19.9676,VALID,119,VALID,0.457981,
2003-08-22, 00:41:01,VALID,918.391,VALID,0,VALID,96.4805,VALID,0,VALID,19.9437,VALID,116,VALID,0.409007,
2003-08-22, 00:42:01,VALID,918.39,VALID,0,VALID,96.717,VALID,0.0169808,VALID,19.9211,VALID,106,VALID,0.52241,
2003-08-22, 00:43:01,VALID,918.382,VALID,0,VALID,96.8123,VALID,0.0169808,VALID,19.8883,VALID,93,VALID,0.690456,
2003-08-22, 00:44:01,VALID,918.356,VALID,0,VALID,96.895,VALID,0,VALID,19.8689,VALID,84,VALID,0.759663,
2003-08-22, 00:45:01,VALID,918.348,VALID,0,VALID,97.0857,VALID,0.0339617,VALID,19.8495,VALID,75,VALID,0.834037,
2003-08-22, 00:46:01,VALID,918.329,VALID,0,VALID,97.1697,VALID,0.0509425,VALID,19.8361,VALID,75,VALID,0.739732,
2003-08-22, 00:47:00,VALID,918.331,VALID,0,VALID,97.2956,VALID,0.0339617,VALID,19.8366,VALID,84,VALID,0.785857,
2003-08-22, 00:48:00,VALID,918.309,VALID,0,VALID,97.3693,VALID,0.0169808,VALID,19.8463,VALID,88,VALID,0.769886,
2003-08-22, 00:49:00,VALID,918.312,VALID,0,VALID,97.466,VALID,0.0509425,VALID,19.8595,VALID,73,VALID,0.835045,
2003-08-22, 00:50:00,VALID,918.266,VALID,0,VALID,97.3566,VALID,0.0169808,VALID,19.8528,VALID,71,VALID,0.943834,
2003-08-22, 00:51:00,VALID,918.264,VALID,0,VALID,97.3095,VALID,0.0339617,VALID,19.8528,VALID,90,VALID,1.01288,
2003-08-22, 00:52:00,VALID,918.25,VALID,0,VALID,97.4901,VALID,0.0169808,VALID,19.8463,VALID,99,VALID,0.868215,
2003-08-22, 00:53:00,VALID,918.232,VALID,0,VALID,97.6287,VALID,0.0339617,VALID,19.859,VALID,104,VALID,0.990017,
2003-08-22, 00:54:00,VALID,918.217,VALID,0,VALID,97.6821,VALID,0.0339617,VALID,19.8689,VALID,125,VALID,1.01213,
2003-08-22, 00:55:00,VALID,918.201,VALID,0,VALID,97.658,VALID,0.0339617,VALID,19.8716,VALID,144,VALID,0.660684,
2003-08-22, 00:56:00,VALID,918.201,VALID,0,VALID,97.5677,VALID,0.0169808,VALID,19.8848,VALID,129,VALID,0.451746,
2003-08-22, 00:57:00,VALID,918.191,VALID,0,VALID,97.4621,VALID,0.0169808,VALID,19.8948,VALID,116,VALID,0.598684,
2003-08-22, 00:58:00,VALID,918.181,VALID,0,VALID,97.3248,VALID,0.0339617,VALID,19.8789,VALID,106,VALID,0.620144,
2003-08-22, 00:59:00,VALID,918.152,VALID,0,VALID,97.3235,VALID,0,VALID,19.8592,VALID,85,VALID,0.656456,
2003-08-22, 01:00:00,VALID,918.122,VALID,0,VALID,97.3413,VALID,0.0169808,VALID,19.8595,VALID,110,VALID,0.745988,
2003-08-22, 01:01:00,VALID,918.107,VALID,0,VALID,97.3833,VALID,0.0169808,VALID,19.8525,VALID,113,VALID,0.78817,
2003-08-22, 01:02:00,VALID,918.086,VALID,0,VALID,97.4176,VALID,0,VALID,19.8396,VALID,107,VALID,0.79988,
2003-08-22, 01:03:00,VALID,918.076,VALID,0,VALID,97.4837,VALID,0.0169808,VALID,19.8135,VALID,93,VALID,0.732008,
2003-08-22, 01:04:00,VALID,918.072,VALID,0,VALID,97.3922,VALID,0.0169808,VALID,19.7914,VALID,92,VALID,0.720536,
2003-08-22, 01:05:00,VALID,918.062,VALID,0,VALID,97.3121,VALID,0.0169808,VALID,19.7589,VALID,103,VALID,0.564823,
2003-08-22, 01:06:00,VALID,918.052,VALID,0,VALID,97.4748,VALID,0.0169808,VALID,19.73,VALID,100,VALID,0.618454,
2003-08-22, 01:07:00,VALID,918.033,VALID,0,VALID,97.78,VALID,0.0339617,VALID,19.7171,VALID,78,VALID,1.14515,
2003-08-22, 01:08:00,VALID,918.031,VALID,0,VALID,97.8156,VALID,0,VALID,19.6878,VALID,79,VALID,0.971571,
2003-08-22, 01:09:00,VALID,918.028,VALID,0,VALID,97.9835,VALID,0,VALID,19.6684,VALID,73,VALID,0.931332,
2003-08-22, 01:10:00,VALID,918.01,VALID,0,VALID,98.1246,VALID,-0.0169808,VALID,19.6719,VALID,102,VALID,1.04624,
2003-08-22, 01:11:00,VALID,917.992,VALID,0,VALID,98.1958,VALID,-0.0509425,VALID,19.6568,VALID,88,VALID,1.03952,
2003-08-22, 01:12:00,VALID,917.961,VALID,0,VALID,98.234,VALID,-0.0679233,VALID,19.6572,VALID,87,VALID,0.854235,
2003-08-22, 01:13:00,VALID,917.936,VALID,0,VALID,98.2785,VALID,-0.0849042,VALID,19.6406,VALID,103,VALID,0.743877,
2003-08-22, 01:14:00,VALID,917.908,VALID,0,VALID,98.2721,VALID,-0.0849042,VALID,19.6503,VALID,104,VALID,0.818462,
2003-08-22, 01:15:00,VALID,917.891,VALID,0,VALID,98.3497,VALID,-0.0509425,VALID,19.6473,VALID,111,VALID,0.741976,
2003-08-22, 01:16:00,VALID,917.865,VALID,0,VALID,98.3561,VALID,-0.0679233,VALID,19.6572,VALID,87,VALID,0.660714,
2003-08-22, 01:17:00,VALID,917.855,VALID,0,VALID,98.351,VALID,-0.0849042,VALID,19.6731,VALID,94,VALID,0.560296,
2003-08-22, 01:18:00,VALID,917.85,VALID,0,VALID,98.2582,VALID,-0.0339617,VALID,19.6702,VALID,78,VALID,0.661458,
2003-08-22, 01:19:00,VALID,917.838,VALID,0,VALID,98.173,VALID,-0.0679233,VALID,19.6635,VALID,78,VALID,0.718527,
2003-08-22, 01:20:00,VALID,917.852,VALID,0,VALID,98.1577,VALID,-0.0509425,VALID,19.65,VALID,91,VALID,0.862542,
2003-08-22, 01:21:00,VALID,917.861,VALID,0,VALID,98.1869,VALID,-0.0849042,VALID,19.6731,VALID,71,VALID,0.48902,
2003-08-22, 01:22:00,VALID,917.846,VALID,0,VALID,98.1246,VALID,-0.0509425,VALID,19.6764,VALID,39,VALID,0.44634,
2003-08-22, 01:23:00,VALID,917.831,VALID,0,VALID,97.9835,VALID,-0.0509425,VALID,19.6667,VALID,46,VALID,0.591146,
2003-08-22, 01:24:00,VALID,917.829,VALID,0,VALID,97.7991,VALID,-0.0849042,VALID,19.6543,VALID,55,VALID,0.767681,
2003-08-22, 01:25:00,VALID,917.809,VALID,0,VALID,97.9517,VALID,-0.0849042,VALID,19.6436,VALID,69,VALID,0.966427,
2003-08-22, 01:26:00,VALID,917.806,VALID,0,VALID,97.9873,VALID,0.0169808,VALID,19.6689,VALID,83,VALID,0.872243,
2003-08-22, 01:27:00,VALID,917.805,VALID,0,VALID,98.0369,VALID,0.0509425,VALID,19.6851,VALID,108,VALID,0.957237,
2003-08-22, 01:28:00,VALID,917.787,VALID,0,VALID,98.1475,VALID,0,VALID,19.7042,VALID,130,VALID,0.86022,
2003-08-22, 01:29:00,VALID,917.77,VALID,0,VALID,98.1539,VALID,0,VALID,19.743,VALID,140,VALID,0.765831,
2003-08-22, 01:30:00,VALID,917.762,VALID,0,VALID,98.0369,VALID,0,VALID,19.772,VALID,156,VALID,0.57348,
2003-08-22, 01:31:00,VALID,917.75,VALID,0,VALID,97.967,VALID,0,VALID,19.7984,VALID,144,VALID,0.395089,
2003-08-22, 01:32:00,VALID,917.731,VALID,0,VALID,97.7559,VALID,0,VALID,19.7944,VALID,202,VALID,0.344351,
2003-08-22, 01:33:00,VALID,917.73,VALID,0,VALID,97.5028,VALID,0,VALID,19.7685,VALID,280,VALID,0.743134,
2003-08-22, 01:34:00,VALID,917.728,VALID,0,VALID,97.499,VALID,0,VALID,19.7531,VALID,272,VALID,0.948884,
2003-08-22, 01:35:00,VALID,917.725,VALID,0,VALID,97.6834,VALID,0,VALID,19.7208,VALID,269,VALID,0.401605,
2003-08-22, 01:36:00,VALID,917.725,VALID,0,VALID,97.7686,VALID,0,VALID,19.6881,VALID,261,VALID,0.540541,
2003-08-22, 01:37:00,VALID,917.723,VALID,0,VALID,97.9199,VALID,0,VALID,19.6426,VALID,252,VALID,0.511308,
2003-08-22, 01:38:00,VALID,917.711,VALID,0,VALID,98.0636,VALID,0.0169808,VALID,19.6108,VALID,251,VALID,0.405165,
2003-08-22, 01:39:00,VALID,917.701,VALID,0,VALID,98.2302,VALID,0,VALID,19.5912,VALID,251,VALID,0.402961,
2003-08-22, 01:40:00,VALID,917.676,VALID,0,VALID,98.379,VALID,0,VALID,19.5785,VALID,251,VALID,0.0627111,
2003-08-22, 01:41:00,VALID,917.665,VALID,0,VALID,98.5163,VALID,0.0169808,VALID,19.5653,VALID,251,VALID,0.247013,
2003-08-22, 01:42:00,VALID,917.663,VALID,0,VALID,98.6358,VALID,0.0339617,VALID,19.575,VALID,251,VALID,0.00205592,
2003-08-22, 01:43:00,VALID,917.661,VALID,0,VALID,98.7032,VALID,0.0339617,VALID,19.5788,VALID,251,VALID,0,
2003-08-22, 01:44:00,VALID,917.667,VALID,0,VALID,98.6969,VALID,0.0679233,VALID,19.5651,VALID,251,VALID,0,
2003-08-22, 01:45:00,VALID,917.653,VALID,0,VALID,98.6841,VALID,0.0339617,VALID,19.5586,VALID,251,VALID,0,
2003-08-22, 01:46:00,VALID,917.65,VALID,0,VALID,98.7121,VALID,0.0339617,VALID,19.5586,VALID,251,VALID,0,
2003-08-22, 01:47:00,VALID,917.646,VALID,0,VALID,98.7388,VALID,0.0509425,VALID,19.5686,VALID,251,VALID,0,
2003-08-22, 01:48:00,VALID,917.648,VALID,0,VALID,98.7515,VALID,0.0509425,VALID,19.5554,VALID,251,VALID,0,
2003-08-22, 01:49:00,VALID,917.647,VALID,0,VALID,98.7617,VALID,0.0679233,VALID,19.5619,VALID,251,VALID,0,
2003-08-22, 01:50:00,VALID,917.633,VALID,0,VALID,98.7439,VALID,0,VALID,19.572,VALID,251,VALID,0.0173142,
2003-08-22, 01:51:00,VALID,917.623,VALID,0,VALID,98.5443,VALID,0,VALID,19.5527,VALID,252,VALID,0.281672,
2003-08-22, 01:52:00,VALID,917.616,VALID,0,VALID,98.3751,VALID,0.0169808,VALID,19.5338,VALID,252,VALID,0.231086,
2003-08-22, 01:53:00,VALID,917.608,VALID,0,VALID,98.1399,VALID,0.0509425,VALID,19.4844,VALID,252,VALID,0.324219,
2003-08-22, 01:54:00,VALID,917.604,VALID,0,VALID,98.2849,VALID,0.0169808,VALID,19.4844,VALID,252,VALID,0.400699,
2003-08-22, 01:55:00,VALID,917.604,VALID,0,VALID,98.5188,VALID,0.0339617,VALID,19.5072,VALID,252,VALID,0.350718,
2003-08-22, 01:56:00,VALID,917.607,VALID,0,VALID,98.604,VALID,0.0169808,VALID,19.5335,VALID,252,VALID,0.45818,
2003-08-22, 01:57:00,VALID,917.601,VALID,0,VALID,98.6346,VALID,0,VALID,19.5234,VALID,252,VALID,0.61472,
2003-08-22, 01:58:00,VALID,917.604,VALID,0,VALID,98.7083,VALID,0,VALID,19.5298,VALID,252,VALID,0.677998,
2003-08-22, 01:59:00,VALID,917.597,VALID,0,VALID,98.5201,VALID,0.0169808,VALID,19.5273,VALID,64,VALID,0.858347,
2003-08-22, 02:00:00,VALID,917.603,VALID,0,VALID,98.014,VALID,0,VALID,19.46,VALID,50,VALID,0.820313,
2003-08-22, 02:01:00,VALID,917.596,VALID,0,VALID,97.8309,VALID,0.0169808,VALID,19.3885,VALID,58,VALID,0.784821,
2003-08-22, 02:02:00,VALID,917.596,VALID,0,VALID,98.0814,VALID,0,VALID,19.3917,VALID,82,VALID,0.842748,
2003-08-22, 02:03:00,VALID,917.582,VALID,0,VALID,98.2543,VALID,0.0169808,VALID,19.3691,VALID,92,VALID,0.67661,
2003-08-22, 02:04:00,VALID,917.568,VALID,0,VALID,98.4743,VALID,-0.0169808,VALID,19.3753,VALID,110,VALID,0.685491,
2003-08-22, 02:05:00,VALID,917.559,VALID,0,VALID,98.7274,VALID,-0.101885,VALID,19.3892,VALID,127,VALID,0.900127,
2003-08-22, 02:06:00,VALID,917.552,VALID,0,VALID,98.7922,VALID,-0.0509425,VALID,19.4247,VALID,123,VALID,0.812922,
2003-08-22, 02:07:00,VALID,917.548,VALID,0,VALID,98.7083,VALID,-0.0509425,VALID,19.4406,VALID,118,VALID,0.813939,
2003-08-22, 02:08:00,VALID,917.545,VALID,0,VALID,98.59,VALID,-0.0169808,VALID,19.4538,VALID,111,VALID,0.438585,
2003-08-22, 02:09:00,VALID,917.54,VALID,0,VALID,98.3879,VALID,-0.0849042,VALID,19.4409,VALID,122,VALID,0.388363,
2003-08-22, 02:10:00,VALID,917.526,VALID,0,VALID,98.412,VALID,-0.0339617,VALID,19.4443,VALID,135,VALID,0.327703,
2003-08-22, 02:11:00,VALID,917.506,VALID,0,VALID,98.4794,VALID,0.0339617,VALID,19.4364,VALID,127,VALID,0.396599,
2003-08-22, 02:12:00,VALID,917.487,VALID,0,VALID,98.5048,VALID,0.0339617,VALID,19.4362,VALID,120,VALID,0.576686,
2003-08-22, 02:13:00,VALID,917.463,VALID,0,VALID,98.5494,VALID,0.0339617,VALID,19.4334,VALID,100,VALID,0.68391,
2003-08-22, 02:14:00,VALID,917.462,VALID,0,VALID,98.5125,VALID,0,VALID,19.4304,VALID,109,VALID,0.793586,
2003-08-22, 02:15:00,VALID,917.455,VALID,0,VALID,98.5341,VALID,0.0509425,VALID,19.4141,VALID,102,VALID,0.822424,
2003-08-22, 02:16:00,VALID,917.444,VALID,0,VALID,98.6104,VALID,0.0339617,VALID,19.3977,VALID,111,VALID,0.885938,
2003-08-22, 02:17:00,VALID,917.437,VALID,0,VALID,98.7197,VALID,0,VALID,19.3979,VALID,116,VALID,0.945713,
2003-08-22, 02:18:00,VALID,917.428,VALID,0,VALID,98.7782,VALID,0.0679233,VALID,19.4046,VALID,106,VALID,0.767282,
2003-08-22, 02:19:00,VALID,917.429,VALID,0,VALID,98.777,VALID,0.0169808,VALID,19.4108,VALID,104,VALID,0.770982,
2003-08-22, 02:20:00,VALID,917.417,VALID,0,VALID,98.6816,VALID,0.0339617,VALID,19.4103,VALID,94,VALID,0.750422,
2003-08-22, 02:21:00,VALID,917.403,VALID,0,VALID,98.4959,VALID,0,VALID,19.4074,VALID,85,VALID,0.78125,
2003-08-22, 02:22:00,VALID,917.402,VALID,0,VALID,98.3993,VALID,0.0169808,VALID,19.3949,VALID,82,VALID,1.04996,
2003-08-22, 02:23:00,VALID,917.387,VALID,0,VALID,98.3179,VALID,0,VALID,19.3949,VALID,74,VALID,1.08789,
2003-08-22, 02:24:00,VALID,917.4,VALID,0,VALID,98.2365,VALID,0.0339617,VALID,19.3882,VALID,75,VALID,1.1507,
2003-08-22, 02:25:00,VALID,917.406,VALID,0,VALID,98.1272,VALID,0.0169808,VALID,19.3912,VALID,80,VALID,1.09058,
2003-08-22, 02:26:00,VALID,917.409,VALID,0,VALID,97.9542,VALID,0.0169808,VALID,19.3949,VALID,82,VALID,0.686581,
2003-08-22, 02:27:00,VALID,917.406,VALID,0,VALID,97.8462,VALID,0.0169808,VALID,19.3661,VALID,118,VALID,0.730058,
2003-08-22, 02:28:00,VALID,917.381,VALID,0,VALID,97.9199,VALID,0,VALID,19.3366,VALID,107,VALID,0.728885,
2003-08-22, 02:29:00,VALID,917.391,VALID,0,VALID,97.9593,VALID,0,VALID,19.3306,VALID,131,VALID,0.608553,
2003-08-22, 02:30:00,VALID,917.37,VALID,0,VALID,98.0636,VALID,0,VALID,19.308,VALID,133,VALID,0.919764,
2003-08-22, 02:31:00,VALID,917.36,VALID,0,VALID,98.2671,VALID,0.0169808,VALID,19.2921,VALID,135,VALID,1.00647,
2003-08-22, 02:32:00,VALID,917.362,VALID,0,VALID,98.4718,VALID,0.0509425,VALID,19.2588,VALID,137,VALID,1.03546,
2003-08-22, 02:33:00,VALID,917.353,VALID,0,VALID,98.6396,VALID,0.0169808,VALID,19.2466,VALID,134,VALID,0.855587,
2003-08-22, 02:34:00,VALID,917.35,VALID,0,VALID,98.8037,VALID,0.0169808,VALID,19.2176,VALID,125,VALID,1.13817,
2003-08-22, 02:35:00,VALID,917.351,VALID,0,VALID,98.9664,VALID,0.0169808,VALID,19.2012,VALID,112,VALID,1.19742,
2003-08-22, 02:36:00,VALID,917.34,VALID,0,VALID,99.0567,VALID,0.0339617,VALID,19.182,VALID,119,VALID,0.864865,
2003-08-22, 02:37:00,VALID,917.355,VALID,0,VALID,99.1826,VALID,0.0169808,VALID,19.1627,VALID,110,VALID,0.91139,
2003-08-22, 02:38:00,VALID,917.343,VALID,0,VALID,99.2767,VALID,0,VALID,19.1527,VALID,129,VALID,0.701389,
2003-08-22, 02:39:00,VALID,917.341,VALID,0,VALID,99.3632,VALID,0,VALID,19.1465,VALID,107,VALID,0.682771,
2003-08-22, 02:40:00,VALID,917.327,VALID,0,VALID,99.4522,VALID,0,VALID,19.1497,VALID,102,VALID,0.942145,
2003-08-22, 02:41:00,VALID,917.328,VALID,0,VALID,99.4878,VALID,0.0169808,VALID,19.1401,VALID,106,VALID,0.857307,
2003-08-22, 02:42:00,VALID,917.334,VALID,0,VALID,99.5285,VALID,0.0169808,VALID,19.1465,VALID,115,VALID,0.688528,
2003-08-22, 02:43:00,VALID,917.329,VALID,0,VALID,99.5704,VALID,0.0339617,VALID,19.1463,VALID,121,VALID,0.645904,
2003-08-22, 02:44:00,VALID,917.335,VALID,0,VALID,99.6315,VALID,0.0169808,VALID,19.1463,VALID,126,VALID,0.570929,
2003-08-22, 02:45:00,VALID,917.348,VALID,0,VALID,99.6226,VALID,0.0339617,VALID,19.1527,VALID,126,VALID,0.433488,
2003-08-22, 02:46:00,VALID,917.341,VALID,0,VALID,99.6315,VALID,0.0339617,VALID,19.1493,VALID,119,VALID,0.58058,
2003-08-22, 02:47:00,VALID,917.338,VALID,0,VALID,99.6391,VALID,0.0169808,VALID,19.153,VALID,126,VALID,1.41006,
2003-08-22, 02:48:00,VALID,917.341,VALID,0,VALID,99.6607,VALID,0.0339617,VALID,19.159,VALID,112,VALID,0.860795,
2003-08-22, 02:49:00,VALID,917.337,VALID,0,VALID,99.6188,VALID,0.0509425,VALID,19.1592,VALID,114,VALID,0.755804,
2003-08-22, 02:50:00,VALID,917.328,VALID,0,VALID,99.6226,VALID,0.0169808,VALID,19.1689,VALID,115,VALID,0.848606,
2003-08-22, 02:51:00,VALID,917.319,VALID,0,VALID,99.6226,VALID,0.0169808,VALID,19.1723,VALID,94,VALID,0.673775,
2003-08-22, 02:52:00,VALID,917.301,VALID,0,VALID,99.6188,VALID,0.0849042,VALID,19.1753,VALID,108,VALID,0.868627,
2003-08-22, 02:53:00,VALID,917.297,VALID,0,VALID,99.6506,VALID,0.0169808,VALID,19.1945,VALID,113,VALID,0.778863,
2003-08-22, 02:54:00,VALID,917.288,VALID,0,VALID,99.6506,VALID,0.0509425,VALID,19.2205,VALID,111,VALID,0.965461,
2003-08-22, 02:55:00,VALID,917.28,VALID,0,VALID,99.62,VALID,0.0509425,VALID,19.2404,VALID,112,VALID,0.785262,
2003-08-22, 02:56:00,VALID,917.279,VALID,0,VALID,99.5641,VALID,-0.0679233,VALID,19.2545,VALID,109,VALID,0.77091,
2003-08-22, 02:57:00,VALID,917.27,VALID,0,VALID,99.5832,VALID,-0.0339617,VALID,19.2672,VALID,115,VALID,1.03125,
2003-08-22, 02:58:00,VALID,917.259,VALID,0,VALID,99.4954,VALID,-0.101885,VALID,19.2871,VALID,105,VALID,0.792652,
2003-08-22, 02:59:00,VALID,917.261,VALID,0,VALID,99.428,VALID,-0.0509425,VALID,19.3,VALID,112,VALID,0.568668,
2003-08-22, 03:00:00,VALID,917.263,VALID,0,VALID,99.3797,VALID,-0.0849042,VALID,19.2963,VALID,119,VALID,0.803209,
2003-08-22, 03:01:00,VALID,917.263,VALID,0,VALID,99.3416,VALID,-0.0339617,VALID,19.3127,VALID,124,VALID,0.646652,
2003-08-22, 03:02:00,VALID,917.262,VALID,0,VALID,99.2971,VALID,-0.0679233,VALID,19.3189,VALID,149,VALID,0.623998,
2003-08-22, 03:03:00,VALID,917.253,VALID,0,VALID,99.2449,VALID,0,VALID,19.3378,VALID,138,VALID,0.495028,
2003-08-22, 03:04:00,VALID,917.26,VALID,0,VALID,99.1699,VALID,-0.0679233,VALID,19.3509,VALID,130,VALID,0.736384,
2003-08-22, 03:05:00,VALID,917.26,VALID,0,VALID,99.0961,VALID,-0.0679233,VALID,19.3571,VALID,116,VALID,0.880279,
2003-08-22, 03:06:00,VALID,917.266,VALID,0,VALID,98.9728,VALID,-0.0339617,VALID,19.3638,VALID,90,VALID,0.821368,
2003-08-22, 03:07:00,VALID,917.286,VALID,0,VALID,98.8762,VALID,0,VALID,19.3606,VALID,89,VALID,0.851768,
2003-08-22, 03:08:00,VALID,917.284,VALID,0,VALID,98.7935,VALID,-0.0339617,VALID,19.3546,VALID,91,VALID,0.972439,
2003-08-22, 03:09:00,VALID,917.294,VALID,0,VALID,98.7236,VALID,-0.0169808,VALID,19.3445,VALID,84,VALID,0.932155,
2003-08-22, 03:10:00,VALID,917.294,VALID,0,VALID,98.6307,VALID,-0.0509425,VALID,19.3246,VALID,90,VALID,0.869088,
2003-08-22, 03:11:00,VALID,917.303,VALID,0,VALID,98.6473,VALID,-0.0679233,VALID,19.3122,VALID,102,VALID,0.831342,
2003-08-22, 03:12:00,VALID,917.288,VALID,0,VALID,98.6473,VALID,-0.0679233,VALID,19.3027,VALID,109,VALID,0.725535,
2003-08-22, 03:13:00,VALID,917.275,VALID,0,VALID,98.6524,VALID,-0.0509425,VALID,19.2863,VALID,106,VALID,0.759713,
2003-08-22, 03:14:00,VALID,917.25,VALID,0,VALID,98.7325,VALID,-0.0509425,VALID,19.2769,VALID,96,VALID,0.955592,
2003-08-22, 03:15:00,VALID,917.228,VALID,0,VALID,98.7375,VALID,-0.0169808,VALID,19.2702,VALID,85,VALID,0.86212,
2003-08-22, 03:16:00,VALID,917.214,VALID,0,VALID,98.7325,VALID,-0.0339617,VALID,19.2607,VALID,86,VALID,0.615848,
2003-08-22, 03:17:00,VALID,917.201,VALID,0,VALID,98.7884,VALID,-0.0509425,VALID,19.264,VALID,82,VALID,0.861178,
2003-08-22, 03:18:00,VALID,917.198,VALID,0,VALID,98.7706,VALID,-0.0509425,VALID,19.254,VALID,78,VALID,0.760653,
2003-08-22, 03:19:00,VALID,917.211,VALID,0,VALID,98.6549,VALID,-0.0339617,VALID,19.2511,VALID,70,VALID,0.730134,
2003-08-22, 03:20:00,VALID,917.226,VALID,0,VALID,98.6193,VALID,-0.0339617,VALID,19.2419,VALID,73,VALID,0.838682,
2003-08-22, 03:21:00,VALID,917.237,VALID,0,VALID,98.515,VALID,-0.0509425,VALID,19.219,VALID,70,VALID,0.540963,
2003-08-22, 03:22:00,VALID,917.258,VALID,0,VALID,98.3739,VALID,-0.0679233,VALID,19.1897,VALID,68,VALID,0.302837,
2003-08-22, 03:23:00,VALID,917.283,VALID,0,VALID,98.3535,VALID,-0.0509425,VALID,19.1768,VALID,68,VALID,0.0891927,
2003-08-22, 03:24:00,VALID,917.298,VALID,0,VALID,98.3357,VALID,-0.0679233,VALID,19.1703,VALID,68,VALID,0,
2003-08-22, 03:25:00,VALID,917.316,VALID,0,VALID,98.3408,VALID,-0.0679233,VALID,19.1609,VALID,68,VALID,0,
2003-08-22, 03:26:00,VALID,917.33,VALID,0,VALID,98.3383,VALID,-0.0679233,VALID,19.1644,VALID,68,VALID,0,
2003-08-22, 03:27:00,VALID,917.325,VALID,0,VALID,98.3942,VALID,-0.0509425,VALID,19.1572,VALID,68,VALID,0.0978618,
2003-08-22, 03:28:00,VALID,917.303,VALID,0,VALID,98.4133,VALID,-0.0339617,VALID,19.1676,VALID,68,VALID,0.0152027,
2003-08-22, 03:29:00,VALID,917.31,VALID,0,VALID,98.3828,VALID,-0.0849042,VALID,19.1447,VALID,71,VALID,0.304276,
2003-08-22, 03:30:00,VALID,917.291,VALID,0,VALID,98.4146,VALID,-0.0509425,VALID,19.1445,VALID,114,VALID,0.505701,
2003-08-22, 03:31:00,VALID,917.286,VALID,0,VALID,98.5328,VALID,-0.0509425,VALID,19.148,VALID,131,VALID,0.603125,
2003-08-22, 03:32:00,VALID,917.28,VALID,0,VALID,98.7007,VALID,-0.0849042,VALID,19.1773,VALID,131,VALID,0.60597,
2003-08-22, 03:33:00,VALID,917.273,VALID,0,VALID,98.7287,VALID,-0.0679233,VALID,19.1835,VALID,131,VALID,0.537405,
2003-08-22, 03:34:00,VALID,917.268,VALID,0,VALID,98.7159,VALID,-0.0849042,VALID,19.1803,VALID,131,VALID,0.518304,